Powrót do katalogu

COSMOS 1083

AktywnyMilitariaLEO
NORAD 11298·PAYLOAD·🇷🇺 Russia

Wystrzelony Mar 15, 1979 z Plesetsk Cosmodrome

Loading…

Następne Przeloty (najbliższe 24 godziny)

TLE

ŚwieżeSource: Space-Track

Epoka: Sep 14, 2026, 13:22 UTC

1 11298U 79024C   26257.55695135 -.00000009  00000-0  43117-4 0  9994
2 11298  74.0310 106.9267 0014529 170.3097 218.1908 12.52617940172070

Śledź COSMOS 1083 w czasie rzeczywistym z AllMySat

Download on the App Store